[[{"header":{"parameterUnit":"m.s-1","parameterCategory":2,"la1":30.2991,"la2":30.254,"lo1":-89.0895,"lo2":-89.0444,"dy":0.0017,"dx":0.0017,"nx":28,"ny":28,"refTime":"2025-12-20T09:00:00:Z","depth":"0","parameterNumber":2,"parameterNumberName":"U-component_of_CURRENTS"},"data":[0,0,0,0,0,0,0,0,0,0,0,0,0,0,0,0,0,0,0,0,0,0,0,0,0,0,0,0,0,0,0,0,0,0,0,0,0,0,0,0,0,0,0,0,0,0,0,0,0,0,0,0,0,0,0,0,0,0,-0.3074,-0.3075,0,-0.3125,-0.3126,-0.3126,-0.3088,-0.3086,-0.3085,-0.3083,-0.3043,-0.3043,-0.3043,0,0,0,0,0,0,0,0,0,0,0,0,0,-0.2957,-0.2959,-0.3074,-0.3075,-0.3076,-0.3125,-0.3126,-0.3126,-0.3088,-0.3086,-0.3084,-0.3083,-0.3043,-0.3043,-0.3043,0,0,0,0,0,0,0,0,0,0,0,0,0,-0.3005,-0.2959,-0.3074,-0.3065,-0.3064,-0.3125,-0.3126,-0.3126,-0.3088,-0.3086,-0.3084,-0.3082,-0.3043,-0.3043,-0.3043,-0.3089,0,0,-0.3044,-0.3045,0,0,0,0,0,0,0,0,-0.3002,-0.3009,-0.3065,-0.3065,-0.3065,-0.31,-0.307,-0.311,-0.3089,-0.3076,-0.3083,-0.3081,-0.3057,-0.3056,-0.3068,-0.3087,-0.3085,-0.3045,-0.3045,-0.3045,-0.3045,0,0,0,0,0,0,0,-0.2999,-0.3007,-0.3091,-0.3066,-0.3066,-0.3063,-0.3067,-0.3077,-0.3074,-0.3077,-0.3075,-0.3086,-0.3056,-0.3068,-0.3066,-0.3084,-0.3044,-0.3045,-0.3045,-0.3045,-0.3103,-0.3105,0,0,0,0,0,0,-0.3,-0.3004,-0.309,-0.3093,-0.3031,-0.3067,-0.3071,-0.3089,-0.3076,-0.3074,-0.3088,-0.3084,-0.3068,-0.3066,-0.3065,-0.3086,-0.3045,-0.3045,-0.3045,-0.3102,-0.3104,-0.3105,0,0,0,0,0,0,-0.2998,-0.3008,-0.3088,-0.3051,-0.3061,-0.3071,-0.3091,-0.3091,-0.3094,-0.3086,-0.308,-0.309,-0.3066,-0.3064,-0.3074,-0.3085,-0.3045,-0.3046,-0.31,-0.3102,-0.3104,-0.3149,0,0,0,0,0,0,-0.2994,-0.3007,-0.3014,-0.3052,-0.3064,-0.3123,-0.3094,-0.3094,-0.3106,-0.3101,-0.3086,-0.3081,-0.3064,-0.3074,-0.3075,-0.3085,-0.3046,-0.3099,-0.3101,-0.3104,-0.3145,-0.3152,-0.3157,0,0,0,0,0,-0.299,-0.3015,-0.3014,-0.3024,-0.3075,-0.3125,-0.3131,-0.3128,-0.3108,-0.312,-0.3109,-0.3081,-0.3089,-0.3076,-0.3076,-0.3086,-0.3098,-0.3101,-0.3103,-0.3143,-0.3151,-0.3157,0,0,0,0,0,0,-0.2964,-0.3015,-0.3014,-0.3051,-0.3084,-0.3119,-0.3131,-0.3133,-0.3138,-0.3126,-0.3105,-0.31,-0.3112,-0.3102,-0.3087,-0.3112,-0.3087,-0.309,-0.3117,-0.3124,-0.313,-0.3123,-0.3046,0,0,0,0,0,-0.2966,-0.2993,-0.304,-0.3065,-0.3085,-0.3108,-0.3124,-0.313,-0.3145,-0.3143,-0.3134,-0.3126,-0.3131,-0.3127,-0.3131,-0.315,-0.3115,-0.3156,-0.3162,-0.3167,-0.3163,-0.313,-0.3132,-0.3115,-0.3115,-0.3115,0,0,-0.296,-0.2992,-0.3005,-0.3061,-0.3082,-0.3124,-0.3111,-0.3146,-0.3169,-0.314,-0.3157,-0.315,-0.3143,-0.3161,-0.3164,-0.3148,-0.3154,-0.3171,-0.3175,-0.3168,-0.3133,-0.3135,-0.3136,-0.3117,-0.3116,-0.3116,0,0,-0.2974,-0.2995,-0.3026,-0.3061,-0.3108,-0.3132,-0.3143,-0.3183,-0.3186,-0.3216,-0.3196,-0.3195,-0.3207,-0.32,-0.3198,-0.3242,-0.319,-0.3245,-0.3264,-0.3232,-0.3233,-0.3233,-0.3184,-0.3179,-0.3243,-0.3243,-0.3243,0,-0.2963,-0.3008,-0.3041,-0.3085,-0.311,-0.3137,-0.3174,-0.32,-0.3233,-0.3235,-0.3222,-0.323,-0.3224,-0.3234,-0.325,-0.3253,-0.322,-0.3235,-0.3238,-0.3237,-0.3236,-0.3186,-0.318,-0.3246,-0.3245,-0.3245,-0.3245,0,-0.3003,-0.3039,-0.3062,-0.3122,-0.3158,-0.3195,-0.3241,-0.3264,-0.3268,-0.3281,-0.329,-0.3285,-0.328,-0.3286,-0.3283,-0.3283,-0.3256,-0.325,-0.3214,-0.324,-0.3186,-0.3179,-0.3249,-0.3248,-0.3247,-0.3247,0,0,-0.2968,-0.307,-0.3072,-0.3101,-0.3176,-0.3207,-0.3257,-0.3299,-0.331,-0.333,-0.3331,-0.3348,-0.333,-0.3328,-0.3319,-0.3299,-0.3269,-0.3276,-0.3273,-0.3217,-0.3182,-0.3087,-0.307,-0.3261,-0.326,-0.3259,-0.3143,0,-0.2979,-0.3055,-0.3106,-0.3165,-0.3204,-0.3249,-0.329,-0.3329,-0.3346,-0.3358,-0.335,-0.3352,-0.3352,-0.3341,-0.3327,-0.3291,-0.3254,-0.33,-0.3174,-0.317,-0.3074,-0.306,-0.2954,-0.2835,-0.3136,-0.3135,-0.3134,0,-0.2988,-0.3038,-0.3099,-0.3178,-0.3197,-0.3235,-0.328,-0.3324,-0.3358,-0.3367,-0.3369,-0.3364,-0.3354,-0.334,-0.3276,-0.3304,-0.3245,-0.3207,-0.3202,-0.309,-0.3062,-0.286,-0.281,-0.2791,-0.3123,-0.3124,-0.3124,0,-0.2923,-0.3023,-0.3062,-0.3092,-0.3193,-0.3213,-0.3257,-0.3309,-0.3332,-0.3361,-0.3361,-0.3359,-0.3335,-0.3288,-0.3224,-0.3247,-0.3128,-0.3144,-0.2994,-0.2986,-0.2858,-0.284,-0.2763,-0.3071,-0.3071,-0.3072,-0.3072,0,-0.2902,-0.2928,-0.3033,-0.3052,-0.3085,-0.3172,-0.3198,-0.3244,-0.3295,-0.3301,-0.3348,-0.3333,-0.3319,-0.326,-0.3209,-0.3068,-0.3107,-0.2981,-0.2946,-0.2871,-0.2856,-0.2803,-0.2834,-0.3067,-0.3068,-0.3069,-0.307,0,-0.2812,-0.2889,-0.2933,-0.3031,-0.3055,-0.3071,-0.3156,-0.3171,-0.3241,-0.3247,-0.3253,-0.3292,-0.3218,-0.3174,-0.3079,-0.3019,-0.2854,-0.2847,-0.2751,-0.2707,-0.2559,-0.2597,-0.2468,-0.2397,-0.2669,-0.2666,-0.2663,0,-0.2769,-0.2786,-0.2881,-0.2894,-0.293,-0.2978,-0.3003,-0.3111,-0.3134,-0.3204,-0.3188,-0.3156,-0.3083,-0.2926,-0.2823,-0.2682,-0.27,-0.2512,-0.2537,-0.2516,-0.2534,-0.257,-0.2523,-0.2384,-0.238,-0.2376,-0.2373,0,-0.2665,-0.27,-0.273,-0.2765,-0.2794,-0.2832,-0.2885,-0.2903,-0.3014,-0.3022,-0.3005,-0.2957,-0.2838,-0.266,-0.251,-0.2426,-0.2459,-0.2426,-0.243,-0.2316,-0.2324,-0.225,-0.25,-0.2339,-0.2342,-0.2344,-0.2346,-0.2348,-0.2556,-0.2549,-0.2589,-0.2603,-0.2638,-0.2649,-0.2622,-0.2692,-0.2696,-0.2676,-0.2755,-0.2644,-0.2556,-0.233,-0.2238,-0.2088,-0.2171,-0.2045,-0.2093,-0.2132,-0.2059,-0.2223,-0.2014,-0.2016,-0.2017,-0.2018,-0.2019,0,-0.2405,-0.2413,-0.2423,-0.2434,-0.2399,-0.2477,-0.25,-0.2439,-0.2376,-0.2412,-0.2359,-0.228,-0.2104,-0.2047,-0.1907,-0.1802,-0.1773,-0.1773,-0.1819,-0.1787,-0.1933,-0.1917,-0.1647,-0.1647,-0.1647,-0.1647,-0.1647,-0.1647,-0.2325,-0.2275,-0.2283,-0.2178,-0.2178,-0.2073,-0.2044,-0.1982,-0.1969,-0.1873,-0.1861,-0.1893,-0.1881,-0.1957,-0.18,-0.1701,-0.1674,-0.161,-0.1645,-0.1792,-0.1823,-0.1852,-0.1844,-0.1562,-0.1562,-0.1435,-0.1434,-0.1434]},{"header":{"parameterUnit":"m.s-1","parameterCategory":2,"la1":30.2991,"la2":30.254,"lo1":-89.0895,"lo2":-89.0444,"dy":0.0017,"dx":0.0017,"nx":28,"ny":28,"refTime":"2025-12-20T09:00:00:Z","depth":"0","parameterNumber":3,"parameterNumberName":"V-component_of_CURRENTS"},"data":[0,0,0,0,0,0,0,0,0,0,0,0,0,0,0,0,0,0,0,0,0,0,0,0,0,0,0,0,0,0,0,0,0,0,0,0,0,0,0,0,0,0,0,0,0,0,0,0,0,0,0,0,0,0,0,0,0,0,-0.0456,-0.0455,0,-0.0353,-0.0351,-0.035,-0.0276,-0.0275,-0.0275,-0.0274,-0.0127,-0.0124,-0.012,0,0,0,0,0,0,0,0,0,0,0,0,0,-0.052,-0.0519,-0.0456,-0.0455,-0.0453,-0.0353,-0.0351,-0.035,-0.0276,-0.0275,-0.0275,-0.0274,-0.0128,-0.0124,-0.012,0,0,0,0,0,0,0,0,0,0,0,0,0,-0.046,-0.0519,-0.0456,-0.0406,-0.04,-0.0353,-0.0351,-0.0349,-0.0276,-0.0275,-0.0275,-0.0274,-0.013,-0.0125,-0.012,-0.0101,0,0,-0.0104,-0.0101,0,0,0,0,0,0,0,0,-0.0464,-0.0458,-0.0414,-0.0409,-0.0403,-0.0328,-0.032,-0.0265,-0.0276,-0.0321,-0.0274,-0.0274,-0.0192,-0.0182,-0.0162,-0.0094,-0.0088,-0.0103,-0.01,-0.0098,-0.0096,0,0,0,0,0,0,0,-0.0468,-0.0462,-0.0413,-0.0413,-0.0406,-0.0365,-0.0356,-0.0309,-0.026,-0.0317,-0.0312,-0.0304,-0.0188,-0.0167,-0.0158,-0.0086,-0.0103,-0.0099,-0.0095,-0.0093,0.0032,0.0032,0,0,0,0,0,0,-0.0489,-0.0466,-0.0416,-0.041,-0.0434,-0.0365,-0.0355,-0.0351,-0.0261,-0.0247,-0.0304,-0.0301,-0.0176,-0.0164,-0.0152,-0.0114,-0.0098,-0.0093,-0.009,0.0032,0.0032,0.0032,0,0,0,0,0,0,-0.0491,-0.0486,-0.0421,-0.0437,-0.0426,-0.0365,-0.0361,-0.035,-0.0329,-0.0252,-0.0237,-0.0295,-0.0175,-0.016,-0.0108,-0.0108,-0.0091,-0.0086,0.0032,0.0032,0.0032,-0.0044,0,0,0,0,0,0,-0.0493,-0.0487,-0.0493,-0.0438,-0.0426,-0.0403,-0.0362,-0.0348,-0.0325,-0.0319,-0.0239,-0.0225,-0.0174,-0.0116,-0.0103,-0.0101,-0.0082,0.0031,0.0032,0.0032,-0.0042,-0.0046,-0.005,0,0,0,0,0,-0.0496,-0.0512,-0.0494,-0.0488,-0.0435,-0.0403,-0.0393,-0.0346,-0.0326,-0.0323,-0.0263,-0.0227,-0.0104,-0.0112,-0.0096,-0.0092,0.0031,0.0032,0.0032,-0.004,-0.0046,-0.005,0,0,0,0,0,0,-0.0541,-0.0504,-0.0483,-0.0486,-0.0451,-0.0392,-0.0387,-0.0354,-0.0305,-0.0299,-0.0224,-0.0206,-0.0161,-0.0117,-0.0127,-0.0054,-0.0031,-0.0027,-0.0091,-0.0096,-0.01,-0.012,-0.0077,0,0,0,0,0,-0.0556,-0.0557,-0.0511,-0.0513,-0.0501,-0.0445,-0.0427,-0.0396,-0.0346,-0.0324,-0.0266,-0.0203,-0.0148,-0.0115,-0.0063,-0.0024,0.0026,-0.0011,-0.0015,-0.0019,-0.0024,0.0054,0.0056,0.0034,0.0034,0.0034,0,0,-0.0573,-0.0554,-0.0553,-0.0523,-0.0491,-0.0481,-0.0432,-0.0413,-0.0396,-0.0316,-0.0277,-0.022,-0.0142,-0.0097,-0.0072,-0.0058,0.0014,-0.0018,-0.0023,-0.0025,0.0055,0.0057,0.0059,0.0034,0.0034,0.0034,0,0,-0.0614,-0.0593,-0.0609,-0.0587,-0.0552,-0.0514,-0.0514,-0.0459,-0.0427,-0.0386,-0.0321,-0.0263,-0.0185,-0.0122,-0.0082,-0.0078,-0.0015,-0.0064,-0.0096,-0.0021,-0.0019,-0.0016,0.0046,0.0055,-0.0062,-0.0062,-0.0062,0,-0.0637,-0.0649,-0.0608,-0.0617,-0.0603,-0.0535,-0.0544,-0.0501,-0.0434,-0.0404,-0.0386,-0.0255,-0.0195,-0.012,-0.012,-0.0088,-0.0041,-0.0086,-0.0028,-0.0024,-0.002,0.0044,0.0055,-0.0066,-0.0065,-0.0065,-0.0065,0,-0.0689,-0.0694,-0.0702,-0.0688,-0.0667,-0.0664,-0.0603,-0.0573,-0.0526,-0.0473,-0.0399,-0.0311,-0.023,-0.0203,-0.0161,-0.01,-0.0075,-0.0048,-0.002,-0.0022,0.0045,0.0058,-0.0071,-0.007,-0.0069,-0.0068,0,0,-0.0745,-0.0742,-0.0743,-0.0749,-0.0705,-0.0694,-0.0663,-0.0609,-0.0579,-0.0506,-0.0458,-0.0361,-0.0306,-0.0256,-0.0187,-0.0125,-0.0058,-0.0085,-0.0079,-0.0033,0.01,0.0151,0.017,-0.0022,-0.002,-0.0019,0.0134,0,-0.0795,-0.0841,-0.0812,-0.083,-0.0845,-0.0773,-0.0748,-0.0687,-0.0616,-0.055,-0.0444,-0.0377,-0.0325,-0.0287,-0.0214,-0.0093,-0.0028,-0.0103,0.0105,0.0111,0.0148,0.0185,0.0237,0.038,0.0147,0.0149,0.015,0,-0.0853,-0.0876,-0.092,-0.0905,-0.0902,-0.0895,-0.0834,-0.08,-0.0685,-0.0628,-0.0532,-0.0444,-0.033,-0.0296,-0.0091,-0.0142,-0.0035,0.0054,0.0063,0.0145,0.0185,0.0348,0.0412,0.0574,0.017,0.0169,0.0167,0,-0.0924,-0.0942,-0.0982,-0.098,-0.0956,-0.095,-0.0922,-0.0829,-0.0789,-0.0673,-0.0629,-0.0477,-0.0392,-0.0244,-0.0053,-0.0071,0.0172,0.0178,0.0325,0.0329,0.0432,0.0443,0.0671,0.0312,0.0312,0.0312,0.0311,0,-0.0991,-0.1017,-0.1022,-0.1046,-0.1075,-0.1025,-0.1017,-0.0959,-0.0865,-0.0809,-0.0679,-0.0592,-0.0376,-0.0206,-0.0054,0.0188,0.0183,0.033,0.038,0.0407,0.0413,0.0605,0.0655,0.0317,0.0316,0.0315,0.0314,0,-0.1062,-0.1066,-0.1112,-0.1115,-0.1116,-0.1137,-0.1097,-0.1076,-0.0982,-0.0903,-0.0871,-0.0659,-0.0427,-0.0205,0.0066,0.02,0.0525,0.0492,0.0502,0.055,0.0814,0.0856,0.1124,0.1226,0.0673,0.0675,0.0677,0,-0.1101,-0.1139,-0.118,-0.1212,-0.1218,-0.1233,-0.1235,-0.115,-0.1114,-0.0931,-0.0894,-0.0653,-0.0451,-0.0035,0.0247,0.0543,0.0655,0.0742,0.0716,0.0854,0.0938,0.0963,0.1031,0.0825,0.0828,0.083,0.0832,0,-0.1172,-0.119,-0.1229,-0.1308,-0.1334,-0.1352,-0.134,-0.1325,-0.1198,-0.1092,-0.0893,-0.0713,-0.0294,0.0094,0.0471,0.0645,0.0871,0.08,0.0961,0.1093,0.1121,0.1235,0.0684,0.0854,0.0852,0.085,0.0849,0.0848,-0.1212,-0.1266,-0.1325,-0.1389,-0.1426,-0.1447,-0.1441,-0.138,-0.1288,-0.1077,-0.0902,-0.0568,-0.0043,0.0514,0.0708,0.1126,0.107,0.1244,0.1289,0.1305,0.1397,0.088,0.1089,0.1089,0.1088,0.1087,0.1087,0,-0.1255,-0.1317,-0.1396,-0.1465,-0.151,-0.1507,-0.1484,-0.1421,-0.1288,-0.1049,-0.0804,-0.0164,0.0349,0.0808,0.1378,0.16,0.1644,0.1711,0.177,0.182,0.1398,0.1396,0.166,0.166,0.166,0.166,0.1659,0.1659,-0.1278,-0.1368,-0.1415,-0.151,-0.1551,-0.1559,-0.1533,-0.1394,-0.1209,-0.0783,-0.0389,-0.0074,0.0584,0.1477,0.1994,0.2043,0.2228,0.2219,0.231,0.2019,0.1978,0.194,0.1953,0.233,0.2331,0.2731,0.2735,0.2738]}],[{"header":{"parameterUnit":"m.s-1","parameterCategory":2,"la1":30.2991,"la2":30.254,"lo1":-89.0895,"lo2":-89.0444,"dy":0.0017,"dx":0.0017,"nx":28,"ny":28,"refTime":"2025-12-20T09:00:00:Z","depth":"2","parameterNumber":2,"parameterNumberName":"U-component_of_CURRENTS"},"data":[0,0,0,0,0,0,0,0,0,0,0,0,0,0,0,0,0,0,0,0,0,0,0,0,0,0,0,0,0,0,0,0,0,0,0,0,0,0,0,0,0,0,0,0,0,0,0,0,0,0,0,0,0,0,0,0,0,0,-0.2659,-0.266,0,-0.27,-0.2701,-0.2701,-0.2677,-0.2677,-0.2676,-0.2675,-0.2656,-0.2656,-0.2656,0,0,0,0,0,0,0,0,0,0,0,0,0,-0.2573,-0.2574,-0.2659,-0.266,-0.2661,-0.27,-0.2701,-0.2701,-0.2678,-0.2676,-0.2675,-0.2674,-0.2655,-0.2656,-0.2656,0,0,0,0,0,0,0,0,0,0,0,0,0,-0.261,-0.2575,-0.2659,-0.2655,-0.2656,-0.27,-0.2701,-0.2701,-0.2678,-0.2676,-0.2675,-0.2674,-0.2655,-0.2656,-0.2656,-0.2689,0,0,-0.2658,-0.2658,0,0,0,0,0,0,0,0,-0.2608,-0.2613,-0.2655,-0.2656,-0.2656,-0.2684,-0.2663,-0.2695,-0.2678,-0.2667,-0.2675,-0.2673,-0.2662,-0.2662,-0.2671,-0.2688,-0.2687,-0.2658,-0.2659,-0.2659,-0.2659,0,0,0,0,0,0,0,-0.2605,-0.2611,-0.2673,-0.2656,-0.2657,-0.2656,-0.2659,-0.2669,-0.2669,-0.2668,-0.2667,-0.2675,-0.2661,-0.267,-0.267,-0.2687,-0.2658,-0.2659,-0.2659,-0.2659,-0.2721,-0.2722,0,0,0,0,0,0,-0.2606,-0.2609,-0.2672,-0.2675,-0.263,-0.2659,-0.2663,-0.2675,-0.267,-0.267,-0.2677,-0.2674,-0.267,-0.2669,-0.2669,-0.2701,-0.2659,-0.2659,-0.266,-0.272,-0.2722,-0.2723,0,0,0,0,0,0,-0.2604,-0.2611,-0.2671,-0.2644,-0.2652,-0.2662,-0.2676,-0.2677,-0.2683,-0.2678,-0.2675,-0.2683,-0.2669,-0.2668,-0.2683,-0.27,-0.266,-0.266,-0.2718,-0.272,-0.2722,-0.2767,0,0,0,0,0,0,-0.2601,-0.261,-0.2616,-0.2644,-0.2653,-0.27,-0.2678,-0.2678,-0.2692,-0.2689,-0.2683,-0.268,-0.2668,-0.2683,-0.2684,-0.27,-0.2661,-0.2717,-0.2719,-0.2722,-0.2764,-0.2771,-0.2776,0,0,0,0,0,-0.2598,-0.2616,-0.2617,-0.2624,-0.2662,-0.2701,-0.2706,-0.2706,-0.2694,-0.2705,-0.2701,-0.268,-0.2698,-0.2684,-0.2685,-0.2702,-0.2716,-0.2719,-0.2721,-0.2762,-0.2769,-0.2776,0,0,0,0,0,0,-0.258,-0.2617,-0.2617,-0.2644,-0.2671,-0.2698,-0.2709,-0.2713,-0.2721,-0.2715,-0.27,-0.2698,-0.2717,-0.2709,-0.2694,-0.2728,-0.2703,-0.2706,-0.2733,-0.274,-0.2746,-0.2742,-0.2661,0,0,0,0,0,-0.2581,-0.2601,-0.2637,-0.2656,-0.2672,-0.2691,-0.2705,-0.2713,-0.2727,-0.2728,-0.2726,-0.2725,-0.2734,-0.2735,-0.2741,-0.2763,-0.2734,-0.2774,-0.278,-0.2785,-0.2784,-0.2763,-0.2767,-0.2733,-0.2733,-0.2732,0,0,-0.2579,-0.2601,-0.2611,-0.2653,-0.2671,-0.2705,-0.2695,-0.2725,-0.2749,-0.2726,-0.2749,-0.2748,-0.2746,-0.2768,-0.2775,-0.276,-0.2779,-0.2789,-0.2793,-0.2789,-0.2767,-0.277,-0.2772,-0.2735,-0.2734,-0.2734,0,0,-0.2589,-0.2606,-0.2628,-0.2657,-0.2694,-0.2715,-0.2726,-0.276,-0.2768,-0.2799,-0.2786,-0.2795,-0.2811,-0.281,-0.2812,-0.2857,-0.2814,-0.2861,-0.2885,-0.2865,-0.2867,-0.2869,-0.2828,-0.2826,-0.2861,-0.2861,-0.2861,0,-0.2582,-0.2614,-0.264,-0.2673,-0.2695,-0.2721,-0.2752,-0.2778,-0.2811,-0.2818,-0.281,-0.2831,-0.283,-0.2849,-0.2867,-0.2868,-0.2842,-0.2856,-0.2871,-0.2872,-0.2873,-0.2831,-0.2827,-0.2864,-0.2864,-0.2863,-0.2863,0,-0.261,-0.2639,-0.2657,-0.2704,-0.2735,-0.2767,-0.281,-0.2836,-0.2847,-0.2864,-0.2885,-0.2887,-0.2892,-0.2901,-0.29,-0.2913,-0.2887,-0.2881,-0.2848,-0.2879,-0.2833,-0.2828,-0.2868,-0.2867,-0.2866,-0.2865,0,0,-0.258,-0.2659,-0.2663,-0.2686,-0.2752,-0.2778,-0.2829,-0.2871,-0.289,-0.2916,-0.2929,-0.2955,-0.2946,-0.2948,-0.2945,-0.2936,-0.2922,-0.2916,-0.2914,-0.2867,-0.2861,-0.2766,-0.2751,-0.2917,-0.2917,-0.2917,-0.2823,0,-0.2586,-0.2643,-0.2687,-0.2738,-0.2769,-0.2815,-0.2857,-0.2899,-0.2925,-0.2948,-0.2953,-0.2967,-0.2968,-0.2967,-0.2963,-0.2938,-0.2914,-0.2947,-0.2846,-0.2843,-0.2747,-0.2745,-0.2561,-0.2456,-0.2818,-0.2817,-0.2817,0,-0.2588,-0.2627,-0.2676,-0.2747,-0.2764,-0.2801,-0.2854,-0.2898,-0.2946,-0.2963,-0.298,-0.2985,-0.2991,-0.298,-0.2939,-0.2959,-0.2914,-0.2885,-0.2881,-0.2772,-0.274,-0.2487,-0.2433,-0.2809,-0.281,-0.281,-0.2811,0,-0.253,-0.2614,-0.2645,-0.2672,-0.2761,-0.2785,-0.283,-0.289,-0.2918,-0.2966,-0.2976,-0.2991,-0.298,-0.295,-0.2904,-0.2921,-0.2836,-0.2846,-0.2709,-0.2701,-0.2513,-0.2489,-0.2795,-0.2795,-0.2796,-0.2796,-0.2796,0,-0.2507,-0.253,-0.262,-0.2636,-0.267,-0.275,-0.2784,-0.2834,-0.2894,-0.291,-0.297,-0.2964,-0.2972,-0.2933,-0.2895,-0.2778,-0.2821,-0.2701,-0.2669,-0.2524,-0.2503,-0.279,-0.2791,-0.2792,-0.2793,-0.2794,-0.2794,0,-0.2426,-0.2491,-0.2528,-0.2617,-0.2641,-0.266,-0.2746,-0.2766,-0.2845,-0.2863,-0.2877,-0.2929,-0.2879,-0.2858,-0.2793,-0.2737,-0.2656,-0.2597,-0.2418,-0.2367,-0.2536,-0.2541,-0.2439,-0.2435,-0.2431,-0.2428,-0.2426,0,-0.2385,-0.2397,-0.2482,-0.2494,-0.2528,-0.2578,-0.2603,-0.2712,-0.2737,-0.2821,-0.2811,-0.2805,-0.2744,-0.2627,-0.2542,-0.2429,-0.2529,-0.2201,-0.2204,-0.2519,-0.2499,-0.2509,-0.2518,-0.1968,-0.1962,-0.1957,-0.1953,0,-0.2291,-0.2323,-0.2349,-0.2378,-0.2405,-0.2441,-0.2493,-0.2507,-0.262,-0.2636,-0.2629,-0.2592,-0.2506,-0.231,-0.2195,-0.2118,-0.2215,-0.2096,-0.2451,-0.2098,-0.207,-0.2053,-0.2078,-0.1909,-0.1913,-0.1917,-0.1919,-0.1921,-0.2199,-0.219,-0.2222,-0.2231,-0.2266,-0.2269,-0.2237,-0.2299,-0.2302,-0.2283,-0.2371,-0.2247,-0.2222,-0.1937,-0.1825,-0.1753,-0.1908,-0.183,-0.1847,-0.1869,-0.1842,-0.1811,-0.1595,-0.1597,-0.16,-0.1602,-0.1603,0,-0.2067,-0.2067,-0.2071,-0.2073,-0.2038,-0.2114,-0.2124,-0.2056,-0.1987,-0.2009,-0.1962,-0.1735,-0.1595,-0.1582,-0.1396,-0.1355,-0.1363,-0.1305,-0.1322,-0.1365,-0.1404,-0.1357,-0.0979,-0.0977,-0.0975,-0.0974,0,0,-0.1997,-0.1944,-0.1942,-0.1834,-0.1832,-0.1728,-0.1692,-0.162,-0.1592,-0.147,-0.1411,-0.1499,-0.1525,-0.1252,-0.1189,-0.1053,-0.12,-0.0998,-0.1498,-0.1561,-0.1598,-0.1702,-0.1677,0,0,0,0,0]},{"header":{"parameterUnit":"m.s-1","parameterCategory":2,"la1":30.2991,"la2":30.254,"lo1":-89.0895,"lo2":-89.0444,"dy":0.0017,"dx":0.0017,"nx":28,"ny":28,"refTime":"2025-12-20T09:00:00:Z","depth":"2","parameterNumber":3,"parameterNumberName":"V-component_of_CURRENTS"},"data":[0,0,0,0,0,0,0,0,0,0,0,0,0,0,0,0,0,0,0,0,0,0,0,0,0,0,0,0,0,0,0,0,0,0,0,0,0,0,0,0,0,0,0,0,0,0,0,0,0,0,0,0,0,0,0,0,0,0,-0.0343,-0.0342,0,-0.0257,-0.0256,-0.0255,-0.0192,-0.0191,-0.0191,-0.019,-0.0061,-0.0058,-0.0055,0,0,0,0,0,0,0,0,0,0,0,0,0,-0.0393,-0.0392,-0.0343,-0.0342,-0.0341,-0.0257,-0.0256,-0.0255,-0.0192,-0.0191,-0.0191,-0.019,-0.0062,-0.0059,-0.0055,0,0,0,0,0,0,0,0,0,0,0,0,0,-0.0344,-0.0392,-0.0343,-0.0301,-0.0296,-0.0258,-0.0256,-0.0254,-0.0192,-0.0191,-0.0191,-0.019,-0.0064,-0.0059,-0.0055,-0.0039,0,0,-0.0041,-0.0039,0,0,0,0,0,0,0,0,-0.0347,-0.0342,-0.0308,-0.0304,-0.0299,-0.0236,-0.0226,-0.0181,-0.0192,-0.023,-0.019,-0.019,-0.0117,-0.0108,-0.0092,-0.0033,-0.0027,-0.004,-0.0037,-0.0035,-0.0034,0,0,0,0,0,0,0,-0.0351,-0.0345,-0.0308,-0.0307,-0.0301,-0.0266,-0.0258,-0.0217,-0.0176,-0.0227,-0.0222,-0.0215,-0.0114,-0.0096,-0.0088,-0.0025,-0.004,-0.0036,-0.0033,-0.0032,0.0077,0.0077,0,0,0,0,0,0,-0.0368,-0.0349,-0.031,-0.0305,-0.0324,-0.0266,-0.0257,-0.0255,-0.0177,-0.0166,-0.0216,-0.0213,-0.0105,-0.0094,-0.0083,-0.0051,-0.0035,-0.0031,-0.0028,0.0077,0.0077,0.0077,0,0,0,0,0,0,-0.037,-0.0366,-0.0314,-0.0326,-0.0317,-0.0266,-0.0264,-0.0254,-0.0237,-0.017,-0.0157,-0.0209,-0.0104,-0.009,-0.0046,-0.0046,-0.0029,-0.0025,0.0076,0.0077,0.0077,0.0008,0,0,0,0,0,0,-0.0372,-0.0367,-0.0373,-0.0327,-0.0317,-0.03,-0.0264,-0.0253,-0.0234,-0.0229,-0.016,-0.0147,-0.0102,-0.0053,-0.0041,-0.0039,-0.0021,0.0076,0.0076,0.0077,0.001,0.0006,0.0002,0,0,0,0,0,-0.0374,-0.0389,-0.0374,-0.0369,-0.0327,-0.0301,-0.0292,-0.0252,-0.0235,-0.0233,-0.0181,-0.0149,-0.0043,-0.0049,-0.0035,-0.0032,0.0076,0.0076,0.0077,0.0012,0.0006,0.0002,0,0,0,0,0,0,-0.0413,-0.0382,-0.0365,-0.037,-0.0341,-0.0291,-0.0287,-0.026,-0.0218,-0.0212,-0.0147,-0.0131,-0.0094,-0.0054,-0.0062,0.0,0.0022,0.0025,-0.0032,-0.0036,-0.004,-0.0054,-0.0017,0,0,0,0,0,-0.0426,-0.0428,-0.039,-0.0393,-0.0383,-0.0337,-0.0322,-0.0296,-0.0253,-0.0234,-0.0185,-0.013,-0.0082,-0.0053,-0.0009,0.0025,0.0071,0.0037,0.0033,0.0029,0.0028,0.0096,0.0098,0.0078,0.0078,0.0078,0,0,-0.044,-0.0425,-0.0425,-0.0402,-0.0376,-0.0369,-0.0326,-0.0311,-0.0298,-0.0227,-0.0196,-0.0146,-0.0077,-0.0039,-0.0018,-0.0004,0.0059,0.003,0.0026,0.0027,0.0097,0.0099,0.01,0.0078,0.0078,0.0078,0,0,-0.0477,-0.046,-0.0476,-0.0458,-0.043,-0.0398,-0.0399,-0.0353,-0.0326,-0.0292,-0.0236,-0.0184,-0.0118,-0.0063,-0.0027,-0.0026,0.0031,-0.0014,-0.0039,0.0026,0.0028,0.0031,0.0085,0.0093,-0.0011,-0.0012,-0.0012,0,-0.0497,-0.051,-0.0475,-0.0485,-0.0476,-0.0417,-0.0428,-0.0392,-0.0336,-0.0311,-0.0294,-0.018,-0.0127,-0.0062,-0.0061,-0.0035,0.0007,-0.003,0.002,0.0024,0.0027,0.0083,0.0093,-0.0015,-0.0015,-0.0014,-0.0014,0,-0.0544,-0.0552,-0.056,-0.0551,-0.0535,-0.0535,-0.0484,-0.046,-0.042,-0.0375,-0.0311,-0.0233,-0.0162,-0.0137,-0.0098,-0.0044,-0.0021,0.0001,0.0028,0.0025,0.0084,0.0095,-0.002,-0.0018,-0.0017,-0.0017,0,0,-0.0593,-0.0595,-0.0597,-0.0605,-0.0571,-0.0564,-0.054,-0.0496,-0.0474,-0.0409,-0.0369,-0.0281,-0.023,-0.0186,-0.0124,-0.0065,-0.0005,-0.0028,-0.0023,0.0018,0.0134,0.0163,0.0179,0.0026,0.0027,0.0029,0.0163,0,-0.0639,-0.0683,-0.066,-0.0683,-0.0698,-0.0639,-0.0621,-0.0571,-0.0511,-0.0456,-0.0359,-0.0301,-0.025,-0.0215,-0.0147,-0.0038,0.0023,-0.0044,0.0139,0.0144,0.0164,0.0192,0.0158,0.0275,0.0174,0.0176,0.0177,0,-0.0691,-0.0714,-0.0758,-0.0753,-0.0752,-0.0751,-0.0704,-0.0679,-0.0581,-0.0533,-0.0447,-0.0367,-0.0262,-0.0226,-0.004,-0.0085,0.0014,0.0097,0.0105,0.0164,0.0194,0.0265,0.03,0.0197,0.0195,0.0194,0.0193,0,-0.0753,-0.0776,-0.0815,-0.0817,-0.0803,-0.0802,-0.0782,-0.0706,-0.0677,-0.0577,-0.0539,-0.0402,-0.0328,-0.0187,-0.0012,-0.0025,0.0192,0.02,0.0321,0.0324,0.0348,0.035,0.0325,0.0325,0.0325,0.0325,0.0324,0,-0.0813,-0.084,-0.0851,-0.0875,-0.0909,-0.0869,-0.0871,-0.0825,-0.075,-0.071,-0.0586,-0.0512,-0.0315,-0.0164,-0.0017,0.0195,0.0196,0.0326,0.0367,0.0322,0.0321,0.0294,0.0288,0.033,0.0329,0.0328,0.0327,0,-0.0873,-0.0881,-0.0928,-0.0939,-0.0944,-0.0968,-0.0946,-0.0936,-0.0857,-0.0798,-0.0769,-0.0584,-0.0379,-0.0176,0.007,0.0191,0.0384,0.0455,0.0385,0.0415,0.0469,0.0459,0.0601,0.0603,0.0605,0.0607,0.0608,0,-0.0907,-0.0943,-0.0989,-0.1023,-0.1033,-0.1056,-0.1065,-0.1002,-0.0977,-0.0831,-0.08,-0.0595,-0.0424,-0.0053,0.0193,0.0461,0.0457,0.0571,0.0543,0.0476,0.0501,0.0487,0.0474,0.0548,0.0549,0.0549,0.055,0,-0.0969,-0.0987,-0.1027,-0.1106,-0.1139,-0.1165,-0.1166,-0.1161,-0.1065,-0.0979,-0.0818,-0.0668,-0.0313,-0.0009,0.0323,0.0472,0.0523,0.0592,0.0567,0.0475,0.0435,0.0456,0.0444,0.0555,0.0555,0.0554,0.0554,0.0554,-0.1004,-0.1054,-0.1112,-0.1178,-0.1222,-0.1253,-0.1255,-0.1213,-0.1147,-0.098,-0.0841,-0.0567,-0.0308,0.0192,0.041,0.0614,0.0613,0.0659,0.0654,0.0649,0.061,0.0575,0.0714,0.0715,0.0715,0.0715,0.0715,0,-0.1042,-0.1099,-0.1175,-0.1247,-0.1297,-0.1303,-0.1298,-0.1246,-0.1143,-0.0961,-0.0765,-0.0425,-0.0094,0.0185,0.0511,0.069,0.0664,0.0714,0.0638,0.0632,0.0627,0.0584,0.0683,0.0684,0.0684,0.0684,0,0,-0.1064,-0.1145,-0.1188,-0.1283,-0.133,-0.1349,-0.1334,-0.1218,-0.1069,-0.085,-0.0633,-0.0385,-0.0056,0.0162,0.0379,0.0546,0.054,0.0559,0.0566,0.0445,0.0437,0.0581,0.0507,0,0,0,0,0]}],[{"header":{"parameterUnit":"m.s-1","parameterCategory":2,"la1":30.2991,"la2":30.254,"lo1":-89.0895,"lo2":-89.0444,"dy":0.0017,"dx":0.0017,"nx":28,"ny":28,"refTime":"2025-12-20T09:00:00:Z","depth":"4","parameterNumber":2,"parameterNumberName":"U-component_of_CURRENTS"},"data":[0,0,0,0,0,0,0,0,0,0,0,0,0,0,0,0,0,0,0,0,0,0,0,0,0,0,0,0,0,0,0,0,0,0,0,0,0,0,0,0,0,0,0,0,0,0,0,0,0,0,0,0,0,0,0,0,0,0,-0.1831,-0.1831,0,-0.1898,-0.1898,-0.1899,-0.1938,-0.1939,-0.1939,-0.1939,-0.1999,-0.2,-0.2002,0,0,0,0,0,0,0,0,0,0,0,0,0,-0.174,-0.1741,-0.1831,-0.1832,-0.1833,-0.1898,-0.1898,-0.1899,-0.1938,-0.1939,-0.1939,-0.194,-0.1999,-0.2,-0.2002,0,0,0,0,0,0,0,0,0,0,0,0,0,-0.1789,-0.1742,-0.183,-0.1861,-0.1865,-0.1897,-0.1898,-0.1899,-0.1938,-0.1939,-0.1939,-0.194,-0.1998,-0.2,-0.2002,-0.2005,0,0,-0.2008,-0.2009,0,0,0,0,0,0,0,0,-0.1786,-0.1792,-0.1856,-0.1859,-0.1863,-0.1912,-0.1889,-0.1935,-0.1938,-0.1909,-0.1939,-0.194,-0.197,-0.1974,-0.1984,-0.2007,-0.201,-0.2008,-0.2009,-0.201,-0.2011,0,0,0,0,0,0,0,-0.1783,-0.1789,-0.1856,-0.1857,-0.1861,-0.1873,-0.188,-0.1897,-0.1934,-0.1911,-0.1915,-0.1925,-0.1972,-0.1982,-0.1985,-0.2011,-0.2008,-0.201,-0.2011,-0.2012,-0.2119,-0.212,0,0,0,0,0,0,-0.1777,-0.1786,-0.1853,-0.1858,-0.1827,-0.1874,-0.1882,-0.1894,-0.1935,-0.1942,-0.1924,-0.1926,-0.1978,-0.1983,-0.1987,-0.2067,-0.201,-0.2012,-0.2013,-0.2117,-0.2119,-0.2121,0,0,0,0,0,0,-0.1775,-0.1782,-0.1851,-0.1825,-0.1834,-0.1875,-0.1889,-0.1895,-0.1936,-0.1945,-0.1951,-0.1961,-0.1979,-0.1985,-0.2033,-0.2066,-0.2013,-0.2014,-0.2115,-0.2118,-0.212,-0.2178,0,0,0,0,0,0,-0.1772,-0.1781,-0.1802,-0.1824,-0.1836,-0.1891,-0.1888,-0.1896,-0.194,-0.1944,-0.1978,-0.1982,-0.1979,-0.203,-0.2035,-0.2068,-0.2016,-0.2113,-0.2116,-0.2119,-0.2174,-0.2182,-0.2189,0,0,0,0,0,-0.1769,-0.1791,-0.1803,-0.1812,-0.1858,-0.1892,-0.19,-0.1928,-0.1942,-0.1966,-0.1992,-0.1983,-0.2053,-0.2033,-0.2038,-0.2073,-0.2111,-0.2115,-0.2119,-0.217,-0.218,-0.2188,0,0,0,0,0,0,-0.1765,-0.1798,-0.1811,-0.1844,-0.1876,-0.19,-0.1929,-0.1947,-0.1987,-0.2001,-0.2005,-0.2012,-0.2065,-0.2064,-0.2042,-0.2113,-0.2081,-0.2086,-0.2118,-0.2127,-0.2135,-0.2127,-0.2018,0,0,0,0,0,-0.1772,-0.1799,-0.183,-0.186,-0.1878,-0.191,-0.1933,-0.1955,-0.1986,-0.2006,-0.203,-0.2056,-0.208,-0.21,-0.2119,-0.2161,-0.2136,-0.2187,-0.2194,-0.2201,-0.2199,-0.2194,-0.22,-0.2133,-0.2133,-0.2133,0,0,-0.1781,-0.1802,-0.182,-0.1862,-0.1889,-0.1923,-0.1926,-0.1972,-0.2008,-0.2005,-0.2071,-0.2087,-0.2098,-0.2144,-0.2167,-0.215,-0.2207,-0.2205,-0.2211,-0.2206,-0.2198,-0.2205,-0.221,-0.2136,-0.2135,-0.2135,0,0,-0.1798,-0.1831,-0.1856,-0.1886,-0.1934,-0.1955,-0.1976,-0.2021,-0.2053,-0.2109,-0.2116,-0.2153,-0.2198,-0.2208,-0.2217,-0.2279,-0.2246,-0.2294,-0.2328,-0.2324,-0.2329,-0.2333,-0.2302,-0.2303,-0.2298,-0.2298,-0.2298,0,-0.181,-0.1841,-0.187,-0.1902,-0.1932,-0.1973,-0.2008,-0.2046,-0.2105,-0.213,-0.2141,-0.2207,-0.2223,-0.2262,-0.2289,-0.2295,-0.2279,-0.2291,-0.2332,-0.2335,-0.2338,-0.2306,-0.2306,-0.2301,-0.2301,-0.2301,-0.23,0,-0.1832,-0.1874,-0.1895,-0.1946,-0.1984,-0.2024,-0.2074,-0.2124,-0.2167,-0.2195,-0.2257,-0.228,-0.2313,-0.2331,-0.2333,-0.2371,-0.2347,-0.2339,-0.2303,-0.2348,-0.2312,-0.2311,-0.2306,-0.2305,-0.2304,-0.2303,0,0,-0.1811,-0.1894,-0.1905,-0.1937,-0.2012,-0.204,-0.211,-0.2169,-0.221,-0.2271,-0.2312,-0.2367,-0.238,-0.2391,-0.24,-0.2406,-0.2419,-0.2392,-0.239,-0.2353,-0.2394,-0.2234,-0.2217,-0.2422,-0.2422,-0.2422,-0.2356,0,-0.1821,-0.188,-0.1924,-0.1993,-0.2025,-0.209,-0.2145,-0.2208,-0.2261,-0.2315,-0.2347,-0.2393,-0.2403,-0.2425,-0.2436,-0.2427,-0.2421,-0.2437,-0.2364,-0.2361,-0.2206,-0.2212,-0.2424,-0.2355,-0.2355,-0.2355,-0.2355,0,-0.1816,-0.1859,-0.1923,-0.2009,-0.2031,-0.2085,-0.2171,-0.2228,-0.2308,-0.2348,-0.2397,-0.2423,-0.246,-0.2455,-0.2451,-0.2463,-0.2436,-0.2418,-0.2414,-0.2242,-0.2199,-0.2304,-0.2352,-0.2352,-0.2353,-0.2353,-0.2353,0,-0.1758,-0.1854,-0.1904,-0.1936,-0.2041,-0.2089,-0.2151,-0.2239,-0.2282,-0.237,-0.2397,-0.2446,-0.2463,-0.2457,-0.2435,-0.245,-0.24,-0.2409,-0.2231,-0.2219,-0.2359,-0.2355,-0.2388,-0.2388,-0.2388,-0.2388,-0.2388,0,-0.1724,-0.1769,-0.1889,-0.1914,-0.1977,-0.2067,-0.2137,-0.2205,-0.229,-0.2317,-0.2409,-0.2412,-0.2466,-0.2448,-0.243,-0.231,-0.2392,-0.2223,-0.2189,-0.2384,-0.2385,-0.2357,-0.2354,-0.2386,-0.2386,-0.2387,-0.2387,0,-0.164,-0.1724,-0.1786,-0.1909,-0.195,-0.1996,-0.2116,-0.215,-0.2255,-0.2289,-0.2315,-0.2386,-0.2356,-0.2369,-0.234,-0.2269,-0.2196,-0.2131,-0.2319,-0.23,-0.2021,-0.2023,-0.1925,-0.1919,-0.1914,-0.1909,-0.1905,0,-0.1596,-0.1623,-0.1758,-0.1792,-0.1852,-0.1939,-0.1983,-0.2111,-0.2138,-0.2239,-0.2225,-0.2249,-0.2269,-0.2084,-0.2135,-0.2059,-0.2039,-0.1988,-0.2025,-0.1995,-0.1973,-0.1983,-0.1991,-0.1897,-0.1896,-0.1894,-0.1893,0,-0.1503,-0.1569,-0.1618,-0.1688,-0.1749,-0.1803,-0.188,-0.188,-0.2001,-0.2118,-0.2061,-0.2034,-0.1985,-0.1958,-0.1901,-0.186,-0.2021,-0.1933,-0.1945,-0.1979,-0.196,-0.1945,-0.196,-0.1874,-0.1877,-0.1879,-0.188,0,-0.1431,-0.144,-0.1512,-0.1553,-0.1626,-0.1629,-0.1695,-0.171,-0.1752,-0.1871,-0.1842,-0.1874,-0.1947,-0.185,-0.1806,-0.1743,-0.1728,-0.168,-0.1705,-0.1726,-0.1693,-0.1642,-0.1412,0,0,0,0,0,-0.1345,-0.1334,-0.1366,-0.1399,-0.1463,-0.15,-0.16,-0.1667,-0.1784,-0.1685,-0.1759,-0.1707,-0.1641,-0.1669,-0.156,-0.1723,-0.174,-0.1591,-0.17,-0.1772,-0.1794,-0.1776,0,0,0,0,0,0,-0.1287,-0.131,-0.1312,-0.1256,-0.1247,-0.1294,-0.1347,-0.1432,-0.1393,-0.152,-0.1487,-0.1592,-0.155,-0.1657,-0.1517,-0.1525,-0.1555,-0.1631,-0.1626,-0.176,-0.178,-0.1797,-0.1786,0,0,0,0,0]},{"header":{"parameterUnit":"m.s-1","parameterCategory":2,"la1":30.2991,"la2":30.254,"lo1":-89.0895,"lo2":-89.0444,"dy":0.0017,"dx":0.0017,"nx":28,"ny":28,"refTime":"2025-12-20T09:00:00:Z","depth":"4","parameterNumber":3,"parameterNumberName":"V-component_of_CURRENTS"},"data":[0,0,0,0,0,0,0,0,0,0,0,0,0,0,0,0,0,0,0,0,0,0,0,0,0,0,0,0,0,0,0,0,0,0,0,0,0,0,0,0,0,0,0,0,0,0,0,0,0,0,0,0,0,0,0,0,0,0,-0.0246,-0.0246,0,-0.0195,-0.0195,-0.0194,-0.0155,-0.0154,-0.0154,-0.0154,-0.0062,-0.0059,-0.0057,0,0,0,0,0,0,0,0,0,0,0,0,0,-0.0267,-0.0267,-0.0247,-0.0246,-0.0245,-0.0195,-0.0195,-0.0194,-0.0155,-0.0154,-0.0154,-0.0154,-0.0062,-0.006,-0.0057,0,0,0,0,0,0,0,0,0,0,0,0,0,-0.024,-0.0267,-0.0247,-0.0221,-0.0218,-0.0196,-0.0194,-0.0193,-0.0155,-0.0154,-0.0154,-0.0154,-0.0063,-0.006,-0.0057,-0.0043,0,0,-0.0046,-0.0045,0,0,0,0,0,0,0,0,-0.0241,-0.0239,-0.0225,-0.0223,-0.022,-0.0182,-0.0168,-0.0142,-0.0155,-0.0177,-0.0154,-0.0153,-0.0099,-0.0093,-0.0083,-0.0039,-0.0035,-0.0046,-0.0044,-0.0043,-0.0042,0,0,0,0,0,0,0,-0.0243,-0.0241,-0.0225,-0.0225,-0.0221,-0.0197,-0.0193,-0.0163,-0.0139,-0.0175,-0.0173,-0.0169,-0.0097,-0.0086,-0.008,-0.0034,-0.0046,-0.0043,-0.0041,-0.004,0.0038,0.0038,0,0,0,0,0,0,-0.0255,-0.0243,-0.0227,-0.0223,-0.0231,-0.0197,-0.0193,-0.0193,-0.014,-0.0133,-0.017,-0.0168,-0.0092,-0.0084,-0.0077,-0.0057,-0.0043,-0.004,-0.0038,0.0038,0.0038,0.0038,0,0,0,0,0,0,-0.0256,-0.0254,-0.0229,-0.0233,-0.0228,-0.0198,-0.0199,-0.0193,-0.0184,-0.0137,-0.0128,-0.0168,-0.0091,-0.0082,-0.0052,-0.0053,-0.0038,-0.0035,0.0038,0.0038,0.0038,-0.0017,0,0,0,0,0,0,-0.0257,-0.0255,-0.0262,-0.0234,-0.0228,-0.0223,-0.0199,-0.0192,-0.0183,-0.018,-0.0132,-0.0123,-0.009,-0.0057,-0.0048,-0.0048,-0.0032,0.0038,0.0038,0.0038,-0.0015,-0.0019,-0.0022,0,0,0,0,0,-0.0258,-0.0271,-0.0263,-0.0261,-0.0239,-0.0224,-0.0219,-0.0195,-0.0184,-0.0185,-0.0149,-0.0125,-0.005,-0.0054,-0.0044,-0.0043,0.0038,0.0038,0.0038,-0.0014,-0.0018,-0.0022,0,0,0,0,0,0,-0.0283,-0.0268,-0.0258,-0.0266,-0.025,-0.0218,-0.0219,-0.0202,-0.0175,-0.0172,-0.0125,-0.0113,-0.0088,-0.0058,-0.0064,-0.0019,-0.0002,0.0,-0.0045,-0.0048,-0.0051,-0.0061,-0.003,0,0,0,0,0,-0.0293,-0.03,-0.0277,-0.0284,-0.028,-0.0251,-0.0243,-0.0227,-0.0199,-0.0188,-0.0153,-0.0114,-0.0079,-0.0059,-0.0027,-0.0003,0.0034,0.0006,0.0002,-0.0001,-0.0001,0.0054,0.0056,0.0038,0.0038,0.0038,0,0,-0.0305,-0.0298,-0.0301,-0.029,-0.0276,-0.0275,-0.0245,-0.024,-0.0235,-0.0181,-0.0165,-0.0128,-0.0077,-0.005,-0.0036,-0.0024,0.0023,-0.0001,-0.0004,-0.0002,0.0054,0.0056,0.0058,0.0039,0.0039,0.0039,0,0,-0.0333,-0.0326,-0.0341,-0.0333,-0.032,-0.03,-0.0302,-0.0274,-0.0258,-0.0238,-0.0197,-0.0159,-0.0113,-0.0071,-0.0044,-0.0045,-0.0,-0.0037,-0.0057,-0.0003,-0.0002,0.0001,0.0043,0.005,-0.0035,-0.0035,-0.0035,0,-0.0348,-0.0363,-0.0343,-0.0354,-0.0353,-0.0315,-0.0328,-0.0305,-0.027,-0.0255,-0.0242,-0.016,-0.012,-0.0073,-0.0073,-0.0053,-0.0019,-0.0048,-0.0008,-0.0005,-0.0002,0.0042,0.0049,-0.0037,-0.0037,-0.0037,-0.0037,0,-0.0385,-0.0398,-0.0406,-0.0408,-0.0402,-0.0407,-0.0376,-0.0364,-0.0339,-0.0309,-0.0265,-0.0204,-0.0153,-0.0134,-0.0103,-0.006,-0.0042,-0.0024,-0.0001,-0.0004,0.0043,0.0052,-0.0041,-0.004,-0.0039,-0.0039,0,0,-0.0417,-0.0431,-0.0435,-0.0448,-0.0433,-0.0433,-0.0423,-0.0399,-0.0389,-0.0342,-0.0318,-0.025,-0.021,-0.0177,-0.0127,-0.0077,-0.0027,-0.0046,-0.0042,-0.0009,0.0085,0.0068,0.0077,-0.0002,-0.0,0.0001,0.0106,0,-0.0452,-0.0494,-0.0484,-0.0514,-0.0531,-0.0497,-0.0491,-0.0462,-0.0424,-0.0389,-0.0312,-0.0272,-0.0227,-0.0202,-0.0144,-0.0056,-0.0005,-0.0058,0.0088,0.0092,0.0073,0.0086,0.0005,0.0113,0.0115,0.0117,0.0118,0,-0.0489,-0.0514,-0.0559,-0.0573,-0.0576,-0.0585,-0.0567,-0.0556,-0.0491,-0.0458,-0.0394,-0.0331,-0.0246,-0.0213,-0.0061,-0.0097,-0.0014,0.0055,0.0061,0.0071,0.0092,0.012,0.0135,0.0134,0.0132,0.0131,0.013,0,-0.0527,-0.0561,-0.0602,-0.0609,-0.0618,-0.0629,-0.0625,-0.0581,-0.0569,-0.0499,-0.0473,-0.0365,-0.0309,-0.0188,-0.0045,-0.005,0.0122,0.0134,0.02,0.0199,0.0207,0.0204,0.024,0.024,0.0239,0.0239,0.0239,0,-0.0564,-0.0596,-0.063,-0.0654,-0.0698,-0.0681,-0.0703,-0.0677,-0.0633,-0.0611,-0.0514,-0.0461,-0.03,-0.0179,-0.0052,0.01,0.012,0.0199,0.0228,0.0181,0.0173,0.0214,0.0209,0.0243,0.0242,0.0241,0.0241,0,-0.0594,-0.0617,-0.067,-0.0705,-0.0721,-0.0752,-0.0767,-0.0769,-0.0722,-0.0687,-0.0666,-0.0527,-0.037,-0.0205,-0.0003,0.0082,0.0234,0.0284,0.0217,0.024,0.0277,0.0269,0.0363,0.0363,0.0364,0.0364,0.0364,0,-0.061,-0.0644,-0.0717,-0.0757,-0.078,-0.0823,-0.0846,-0.082,-0.0808,-0.0718,-0.0693,-0.0547,-0.0439,-0.0156,0.0004,0.0236,0.0266,0.033,0.0307,0.0273,0.0292,0.0283,0.0274,0.0364,0.0365,0.0365,0.0365,0,-0.0639,-0.0673,-0.0718,-0.0806,-0.0856,-0.0899,-0.0921,-0.0919,-0.0868,-0.0833,-0.0692,-0.0539,-0.0364,-0.0152,0.0022,0.0189,0.0279,0.0334,0.0334,0.0313,0.0276,0.0292,0.0284,0.0366,0.0365,0.0365,0.0365,0,-0.0656,-0.0699,-0.0767,-0.0837,-0.0907,-0.0944,-0.0957,-0.092,-0.0895,-0.0783,-0.0738,-0.0533,-0.0414,-0.0175,-0.0007,0.0145,0.0179,0.0214,0.0221,0.0222,0.0143,0.0073,0.0129,0,0,0,0,0,-0.0664,-0.0714,-0.0789,-0.0864,-0.0933,-0.0964,-0.0987,-0.0981,-0.0936,-0.084,-0.0781,-0.0606,-0.0341,-0.0217,-0.0065,-0.0026,0.0181,0.0152,0.0219,0.0371,0.037,0.0298,0,0,0,0,0,0,-0.0672,-0.0745,-0.0785,-0.0866,-0.0915,-0.0975,-0.0989,-0.0963,-0.0891,-0.0826,-0.0673,-0.0585,-0.0321,-0.042,-0.0063,-0.0017,0.004,0.0283,0.0286,0.0372,0.0371,0.037,0.0296,0,0,0,0,0]}]]